Home   Weather   Martigny   Past weeks

Flag for Switzerland Past Weather in Martigny, Valais, Switzerland — Yesterday and Last 2 Weeks

Now
63 °F

Sunny.


Feels Like: 63 °F
Forecast: 57 / 75 °F
Wind: 2 mph from East

Location: Sion

Current Time: Sep 30, 2016 at 12:18:21 PM

Latest Report: Sep 30, 2016 at 11:00 AM


Visibility: 25 mi

Pressure: 30.11 "Hg

Humidity: 55%

Dew Point: 47 °F

Location of MartignyLocation

Past Weather in Martigny — Graph

°F

Martigny Temperature Yesterday

Maximum temperature yesterday: 76 °F (at 4:00 PM)
Minimum temperature yesterday: 49 °F (at 6:00 AM)
Average temperature yesterday: 62 °F

High & Low Weather Summary for the Past Weeks

 TemperatureHumidityPressure
High76 °F (Sep 29, 4:00 PM)96% (Sep 17, 4:00 AM)30.50 "Hg (Sep 17, 4:00 AM)
Low48 °F (Sep 25, 7:00 AM)35% (Sep 25, 2:00 PM)29.82 "Hg (Sep 15, 4:00 PM)
Average61 °F71%30.11 "Hg
* Reported Sep 15 11:00 AM — Sep 30 11:00 AM, Martigny, Weather by CustomWeather, © 2016

Note: Actual official high and low records may vary slightly from our data, if they occured in-between our weather recording intervals... More about our weather records

Advertising

Martigny Weather History for the Previous 24 Hours

Scroll right to see more
 ConditionsComfort  
Time TempWeatherWind HumidityBarometerVisibility
11:00 AM
Fri, Sep 30
63 °FSunny.2 mph55%30.11 "Hg25 mi
10:00 AM58 °FCool.3 mph67%30.14 "HgN/A
9:00 AM52 °FCool.2 mph83%30.16 "HgN/A
8:00 AM50 °FSunny.2 mph85%30.17 "Hg19 mi
7:00 AM50 °FCool.3 mph87%30.16 "HgN/A
6:00 AM51 °FCool.2 mph84%30.16 "HgN/A
5:00 AM51 °FClear.1 mph83%30.17 "Hg9 mi
4:00 AM51 °FCool.2 mph84%30.17 "HgN/A
3:00 AM52 °FCool.No wind87%30.19 "HgN/A
2:00 AM52 °FClear.1 mph89%30.19 "Hg9 mi
1:00 AM53 °FCool.No wind84%30.19 "HgN/A
12:00 AM55 °FCool.1 mph80%30.19 "HgN/A
11:00 PM
Thu, Sep 29
58 °FClear.1 mph75%30.18 "Hg19 mi
10:00 PM60 °FCool.1 mph70%30.16 "HgN/A
9:00 PM64 °FMild.2 mph60%30.14 "HgN/A
8:00 PM64 °FClear.3 mph63%30.13 "Hg22 mi
7:00 PM70 °FMild.7 mph50%30.10 "HgN/A
6:00 PM75 °FMild.9 mph43%30.07 "HgN/A
5:00 PM75 °FSunny.10 mph42%30.09 "Hg22 mi
4:00 PM76 °FMild.13 mph39%30.10 "HgN/A
3:00 PM75 °FMild.10 mph38%30.13 "HgN/A
2:00 PM75 °FMild.5 mph37%30.16 "HgN/A
1:00 PM71 °FMild.3 mph41%30.22 "HgN/A
12:00 PM67 °FMild.3 mph47%30.26 "HgN/A
Weather by CustomWeather, © 2016

See weather overviewHow to use our weather pages